Location: Gwatt
(46.7204°N, 7.6223°E)
Time: 15:08:47
(UTC+00:00)

Cosmos 1627 Rocket - Pass Details

Date: 18 September 2020
Orbit: 951 x 1003 km, 82.9° (Epoch: 23 October)

Event Time Altitude Azimuth Distance (km) Brightness Sun altitude
Rises 19:42:42 0° 353° (N) 3,731 8.0 -21.9°
Reaches altitude 10° 19:45:15 10° 356° (N) 2,782 7.3 -22.3°
Maximum altitude 19:51:38 68° 79° (E) 1,075 4.5 -23.2°
Enters shadow 19:53:35 46° 145° (SE) 1,331 4.8 -23.5°
